XAMGA MMLO-MMQT

Flight info

Callsign XAMGA
Flight time N/A
Altitude 15000
Route BJX3A BJX DCT QET
Aircraft PC12/L-SDFGRWY/S

Departure

Time 2026-04-22 00:28
Airport Guanajuato International Airport (MMLO)

Arrival

Time N/A
Airport Querétaro Intercontinental Airport (MMQT)
Time Latitude Longitude Altitude Speed Heading
2026-04-21 23:55 20.98861 -101.48153 5967 ft 0 kts 135°
2026-04-21 23:59 20.98861 -101.48110 5969 ft 13 kts 58°
2026-04-21 23:59 20.98853 -101.47982 5969 ft 28 kts 134°
2026-04-21 23:59 20.98765 -101.47797 5968 ft 27 kts 31°
2026-04-21 23:59 20.98925 -101.47936 5968 ft 38 kts 315°
2026-04-22 00:00 20.98996 -101.48008 5967 ft 43 kts 316°
2026-04-22 00:00 20.99015 -101.48028 5968 ft 44 kts 311°
2026-04-22 00:00 20.99249 -101.48285 5967 ft 44 kts 315°
2026-04-22 00:00 20.99356 -101.48406 5970 ft 0 kts 309°
2026-04-22 00:26 20.99384 -101.48438 5969 ft 16 kts 310°
2026-04-22 00:27 20.99524 -101.48586 5970 ft 41 kts 315°
2026-04-22 00:27 20.99709 -101.48564 5967 ft 33 kts 64°
2026-04-22 00:27 20.99698 -101.48508 5969 ft 12 kts 134°
2026-04-22 00:27 20.99503 -101.48281 5970 ft 69 kts 131°
2026-04-22 00:28 20.99050 -101.47808 5997 ft 108 kts 137°
2026-04-22 00:28 20.98442 -101.47118 6057 ft 147 kts 137°
2026-04-22 00:28 20.97721 -101.46309 6869 ft 144 kts 139°
2026-04-22 00:28 20.97004 -101.45570 7448 ft 146 kts 142°
2026-04-22 00:29 20.96233 -101.44820 7797 ft 154 kts 139°
2026-04-22 00:29 20.95423 -101.44040 8333 ft 157 kts 141°
2026-04-22 00:29 20.94602 -101.43253 8851 ft 162 kts 140°
2026-04-22 00:29 20.93729 -101.42413 9315 ft 171 kts 139°
2026-04-22 00:30 20.92853 -101.41551 9901 ft 172 kts 139°
2026-04-22 00:30 20.91971 -101.40673 10422 ft 175 kts 138°
2026-04-22 00:30 20.91064 -101.39795 10952 ft 176 kts 138°
2026-04-22 00:30 20.90205 -101.38845 11462 ft 179 kts 124°
2026-04-22 00:31 20.89609 -101.37674 11983 ft 180 kts 114°
2026-04-22 00:31 20.89061 -101.36470 12521 ft 181 kts 114°
2026-04-22 00:31 20.88508 -101.35278 13048 ft 182 kts 115°
2026-04-22 00:31 20.88148 -101.33990 13569 ft 181 kts 96°
2026-04-22 00:32 20.87948 -101.32634 14096 ft 183 kts 97°
2026-04-22 00:32 20.87682 -101.31291 14556 ft 186 kts 101°
2026-04-22 00:32 20.87339 -101.29912 14840 ft 201 kts 110°
2026-04-22 00:32 20.86423 -101.28730 14884 ft 223 kts 146°
2026-04-22 00:33 20.84961 -101.28043 14879 ft 237 kts 163°
2026-04-22 00:33 20.83358 -101.27523 14857 ft 244 kts 165°
2026-04-22 00:33 20.81718 -101.27013 14844 ft 247 kts 165°
2026-04-22 00:33 20.80060 -101.26497 14824 ft 249 kts 165°
2026-04-22 00:34 20.78395 -101.25981 14814 ft 249 kts 165°
2026-04-22 00:34 20.76728 -101.25467 14794 ft 250 kts 165°
2026-04-22 00:34 20.75057 -101.24953 14777 ft 249 kts 165°
2026-04-22 00:34 20.73389 -101.24440 14757 ft 250 kts 165°
2026-04-22 00:35 20.71721 -101.23923 14745 ft 250 kts 165°
2026-04-22 00:35 20.70052 -101.23407 14739 ft 250 kts 165°
2026-04-22 00:35 20.68385 -101.22891 14737 ft 250 kts 165°
2026-04-22 00:35 20.66718 -101.22375 14738 ft 249 kts 165°
2026-04-22 00:36 20.65723 -101.22068 14738 ft 249 kts 165°